CW8443 Weather Reports


Display with metric or nautical units.
time (UTC)temp
F
wind
direction
speed
MPH
gust
MPH
rain 1hr
in
rain 24hr
in
rain mn
in
humidity
%
barometer
mb
20260508104749 72 186 0.0 0.0 0.00 0.00 0.00 61 996.5
20260508103750 72 186 0.0 0.0 0.00 0.00 0.00 61 996.4
20260508103244 72 231 0.0 0.0 0.00 0.00 0.00 60 996.4
20260508103132 72 169 0.0 0.0 0.00 0.00 0.00 60 996.4
20260508102750 72 182 0.0 0.0 0.00 0.00 0.00 60 996.5
20260508101739 72 221 0.0 0.0 0.00 0.00 0.00 60 996.5
20260508101248 72 203 0.0 0.0 0.00 0.00 0.00 60 996.2
20260508100742 72 152 0.0 0.0 0.00 0.00 0.00 59 996.2
20260508100241 72 227 0.0 0.0 0.00 0.00 0.00 59 996.2
20260508100145 72 166 0.0 0.0 0.00 0.00 0.00 59 996.2
20260508095241 73 124 0.0 0.0 0.00 0.00 0.00 59 996.3
20260508094750 73 169 0.0 0.0 0.00 0.00 0.00 59 996.3
20260508094241 73 158 0.0 0.0 0.00 0.00 0.00 58 996.3
20260508093753 73 187 0.0 0.0 0.00 0.00 0.00 58 996.3
20260508093251 73 194 0.0 0.0 0.00 0.00 0.00 57 996.3
20260508093135 73 173 0.0 0.0 0.00 0.00 0.00 57 996.3
20260508092737 73 172 0.0 0.0 0.00 0.00 0.00 57 996.1
20260508092248 74 145 0.0 0.0 0.00 0.00 0.00 57 996.1
20260508091740 74 161 0.0 0.0 0.00 0.00 0.00 57 996.1
20260508091252 74 163 0.0 0.0 0.00 0.00 0.00 57 996.2
20260508090750 74 183 0.0 0.0 0.00 0.00 0.00 57 996.2
20260508090247 74 165 0.0 0.0 0.00 0.00 0.00 56 996.2
20260508090131 74 179 0.0 0.0 0.00 0.00 0.00 56 996.2
20260508085748 74 186 0.0 0.0 0.00 0.00 0.00 56 996.2
20260508085236 75 158 0.0 0.0 0.00 0.00 0.00 56 996.2
20260508084748 75 228 0.0 0.0 0.00 0.00 0.00 56 996.2
20260508084237 75 185 0.0 0.0 0.00 0.00 0.00 55 996.2
20260508083747 75 187 0.0 0.0 0.00 0.00 0.00 55 996.2
20260508083241 75 156 0.0 0.0 0.00 0.00 0.00 55 996.2
20260508083147 75 248 0.0 0.0 0.00 0.00 0.00 55 996.2
20260508082749 75 154 0.0 0.0 0.00 0.00 0.00 56 996.2
20260508082238 75 176 0.0 0.0 0.00 0.00 0.00 56 996.2
20260508081749 75 187 0.0 0.0 0.00 0.00 0.00 56 996.2
20260508081239 75 251 0.0 0.0 0.00 0.00 0.00 56 996.5
20260508080752 75 155 0.0 0.0 0.00 0.00 0.00 56 996.5
20260508080244 75 170 0.0 0.0 0.00 0.00 0.00 56 996.5
20260508080132 75 170 0.0 0.0 0.00 0.00 0.00 56 996.5
20260508075749 75 176 0.0 0.0 0.00 0.00 0.00 55 996.9
20260508075238 76 180 0.0 0.0 0.00 0.00 0.00 54 996.9
20260508074754 76 149 0.0 0.0 0.00 0.00 0.00 54 996.9
20260508074244 77 125 0.0 0.0 0.00 0.00 0.00 53 996.9
20260508073753 77 182 0.0 0.0 0.00 0.00 0.00 52 996.9
20260508073256 77 124 0.0 0.0 0.00 0.00 0.00 52 996.9
20260508072743 77 186 0.0 0.0 0.00 0.00 0.00 52 997.0
20260508072252 77 162 0.0 0.0 0.00 0.00 0.00 52 997.0
20260508071745 77 203 0.0 0.0 0.00 0.00 0.00 52 997.0
20260508071250 77 162 0.0 0.0 0.00 0.00 0.00 52 997.1
20260508070739 77 161 0.0 0.0 0.00 0.00 0.00 52 997.1
20260508070251 77 169 0.0 0.0 0.00 0.00 0.00 53 997.1
20260508070135 77 211 0.0 0.0 0.00 0.00 0.00 53 997.1
20260508065754 77 121 0.0 0.0 0.00 0.00 0.00 54 997.3
20260508065243 77 155 0.0 0.0 0.00 0.00 0.00 53 997.3
20260508064741 77 166 0.0 0.0 0.00 0.00 0.00 53 997.3
20260508063740 78 186 0.0 0.0 0.00 0.00 0.00 53 997.7
20260508063246 78 87 0.0 0.0 0.00 0.00 0.00 53 997.7
20260508063132 78 186 0.0 0.0 0.00 0.00 0.00 53 997.7
20260508062740 78 138 0.0 0.0 0.00 0.00 0.00 52 997.7
20260508062249 79 154 0.0 0.0 0.00 0.00 0.00 52 997.8
20260508061741 79 142 0.0 0.0 0.00 0.00 0.00 52 997.8
20260508061250 79 173 0.0 0.0 0.00 0.00 0.00 52 997.9
20260508060739 79 137 0.0 0.0 0.00 0.00 0.00 52 997.9
20260508060255 79 161 0.0 0.0 0.00 0.00 0.00 51 997.9
20260508060139 79 101 0.0 0.0 0.00 0.00 0.00 52 997.9
20260508055740 79 106 0.0 0.0 0.00 0.00 0.00 52 998.0
20260508054744 79 60 0.0 0.0 0.00 0.00 0.00 55 998.0
20260508054254 79 82 0.0 0.0 0.00 0.00 0.00 55 998.6
20260508053742 79 121 0.0 0.0 0.00 0.00 0.00 55 998.6
20260508053252 78 101 0.0 0.0 0.00 0.00 0.00 56 998.6
20260508052252 78 26 0.0 0.0 0.00 0.00 0.00 56 999.0
20260508051746 78 148 0.0 0.0 0.00 0.00 0.00 56 999.0
20260508050749 78 341 0.0 0.0 0.00 0.00 0.00 58 999.1
20260508050247 78 341 0.0 0.0 0.00 0.00 0.00 58 999.1
20260508050132 78 346 0.0 0.0 0.00 0.00 0.00 58 999.1
20260508045249 77 350 0.0 0.0 0.00 0.00 0.00 59 999.3
20260508044742 77 36 0.0 0.0 0.00 0.00 0.00 61 999.3
20260508044252 76 42 0.0 0.0 0.00 0.00 0.00 61 999.6
20260508043738 76 41 0.0 0.0 0.00 0.00 0.00 61 999.6
20260508043145 76 49 0.0 0.0 0.00 0.00 0.00 61 999.6
20260508042741 76 59 0.0 0.0 0.00 0.00 0.00 61 999.9
20260508042253 76 55 0.0 0.0 0.00 0.00 0.00 61 999.9
20260508041749 76 21 0.0 0.0 0.00 0.00 0.00 61 999.9
20260508041237 76 354 0.0 0.0 0.00 0.00 0.00 61 1000.2
20260508040752 76 334 0.0 0.0 0.00 0.00 0.00 60 1000.2
20260508040255 76 26 0.0 0.0 0.00 0.00 0.00 60 1000.2
20260508040139 76 26 0.0 0.0 0.00 0.00 0.00 60 1000.2
20260508035239 76 338 0.0 0.0 0.00 0.00 0.00 62 1000.4
20260508034752 76 336 0.0 0.0 0.00 0.00 0.00 61 1000.4
20260508034241 76 12 0.0 0.0 0.00 0.00 0.00 61 1000.4
20260508033751 76 35 0.0 0.0 0.00 0.00 0.00 61 1000.4
20260508033245 76 358 0.0 0.0 0.00 0.00 0.00 60 1000.4
20260508033132 76 8 0.0 0.0 0.00 0.00 0.00 60 1000.4
20260508032754 76 14 0.0 0.0 0.00 0.00 0.00 61 1000.9
20260508032240 76 331 0.0 0.0 0.00 0.00 0.00 61 1000.9
20260508031736 76 330 0.0 0.0 0.00 0.00 0.00 62 1000.9
20260508031249 76 347 0.0 0.0 0.00 0.00 0.00 62 1001.2
20260508030745 75 324 0.0 0.0 0.00 0.00 0.00 63 1001.2
20260508030240 75 326 0.0 0.0 0.00 0.00 0.00 62 1001.2
20260508030143 75 323 0.0 0.0 0.00 0.00 0.00 62 1001.2
20260508025740 75 326 0.0 0.0 0.00 0.00 0.00 62 1001.3
20260508025251 75 331 0.0 0.0 0.00 0.00 0.00 63 1001.3
20260508024740 75 326 0.0 0.0 0.00 0.00 0.00 63 1001.3
20260508024254 75 326 0.0 0.0 0.00 0.00 0.00 63 1001.7
20260508023741 75 324 0.0 0.0 0.00 0.00 0.00 64 1001.7
20260508023255 75 323 0.0 0.0 0.00 0.00 0.00 63 1001.7
20260508023139 75 323 0.0 0.0 0.00 0.00 0.00 64 1001.7
20260508022736 75 324 0.0 0.0 0.00 0.00 0.00 63 1001.5
20260508022243 75 323 0.0 0.0 0.00 0.00 0.00 63 1001.5
20260508021748 75 324 0.0 0.0 0.00 0.00 0.00 62 1001.5
20260508021238 75 326 0.0 0.0 0.00 0.00 0.00 62 1001.7
20260508020751 75 324 0.0 0.0 0.00 0.00 0.00 62 1001.7
20260508020241 75 319 0.0 0.0 0.00 0.00 0.00 62 1001.7
20260508020129 75 319 0.0 0.0 0.00 0.00 0.00 62 1001.7
20260508015741 75 320 0.0 0.0 0.00 0.00 0.00 62 1001.7
20260508015239 75 330 0.0 0.0 0.00 0.00 0.00 62 1001.7
20260508014751 75 327 0.0 0.0 0.00 0.00 0.00 63 1001.7
20260508014245 74 324 0.0 0.0 0.00 0.00 0.00 63 1001.9
20260508013748 75 320 0.0 0.0 0.00 0.00 0.00 63 1001.9
20260508013257 75 320 0.0 0.0 0.00 0.00 0.00 63 1001.9
20260508012740 74 322 0.0 0.0 0.00 0.00 0.00 63 1001.8
20260508012254 74 320 0.0 0.0 0.00 0.00 0.00 63 1001.8
20260508011253 74 334 0.0 0.0 0.00 0.00 0.00 63 1002.2
20260508010745 75 346 0.0 0.0 0.00 0.00 0.00 64 1002.2
20260508010238 74 338 0.0 0.0 0.00 0.00 0.00 63 1002.2
20260508010142 74 336 0.0 0.0 0.00 0.00 0.00 63 1002.2
20260508005745 74 331 0.0 0.0 0.00 0.00 0.00 64 1002.3
20260508004735 74 334 0.0 0.0 0.00 0.00 0.00 64 1002.3
20260508004247 74 341 0.0 0.0 0.00 0.00 0.00 64 1002.5
20260508003741 74 319 0.0 0.0 0.00 0.00 0.00 63 1002.5
20260508003256 74 19 0.0 0.0 0.00 0.00 0.00 63 1002.5
20260508002740 74 25 0.0 0.0 0.00 0.00 0.00 63 1002.9
20260508001753 74 343 0.0 0.0 0.00 0.00 0.00 64 1002.9
20260508001245 74 344 0.0 0.0 0.00 0.00 0.00 65 1003.0
20260508000744 73 347 0.0 0.0 0.00 0.00 0.00 65 1002.9
20260508000246 73 344 0.0 0.0 0.00 0.00 0.00 66 1002.9
20260508000132 73 341 0.0 0.0 0.00 0.00 0.00 66 1002.9
20260507235751 73 351 0.0 0.0 0.00 0.00 0.00 67 1002.9
20260507235239 72 8 0.0 0.0 0.00 0.00 0.00 68 1002.9
20260507234754 72 351 0.0 0.0 0.00 0.00 0.00 69 1002.9
20260507234244 72 333 0.0 0.0 0.00 0.00 0.00 70 1003.3
20260507233736 72 330 0.0 0.0 0.00 0.00 0.00 71 1003.3
20260507233253 72 331 0.0 0.0 0.00 0.00 0.00 71 1003.3
20260507233137 72 330 0.0 0.0 0.00 0.00 0.00 71 1003.3
20260507232739 71 329 0.0 0.0 0.00 0.00 0.00 72 1003.0
20260507232249 71 329 0.0 0.0 0.00 0.00 0.00 73 1003.0
20260507231743 71 327 0.0 0.0 0.00 0.00 0.00 73 1003.0
20260507230750 70 327 0.0 0.0 0.00 0.00 0.00 74 1003.0
20260507230244 70 331 0.0 0.0 0.00 0.00 0.00 75 1003.0
20260507230132 70 18 0.0 0.0 0.00 0.00 0.00 75 1003.0
20260507225749 69 31 0.0 0.0 0.00 0.00 0.00 76 1003.4
20260507225239 69 42 0.0 0.0 0.00 0.00 0.00 76 1003.4
20260507224754 69 42 0.0 0.0 0.00 0.00 0.00 76 1003.4
20260507223739 69 69 0.0 0.0 0.00 0.00 0.00 78 1003.5
20260507223239 69 69 0.0 0.0 0.00 0.00 0.00 79 1003.5
20260507222749 68 89 0.0 0.0 0.00 0.00 0.00 80 1003.4
20260507222239 68 89 0.0 0.0 0.00 0.00 0.00 80 1003.4
20260507221244 67 154 0.0 0.0 0.00 0.00 0.00 81 1003.5
20260507220741 67 154 0.0 0.0 0.00 0.00 0.00 82 1003.5
20260507220240 67 154 0.0 0.0 0.00 0.00 0.00 82 1003.5
20260507220146 67 154 0.0 0.0 0.00 0.00 0.00 82 1003.5
20260507215748 67 154 0.0 0.0 0.00 0.00 0.00 82 1003.7
20260507215238 67 154 0.0 0.0 0.00 0.00 0.00 82 1003.7
20260507214752 66 154 0.0 0.0 0.00 0.00 0.00 82 1003.6
20260507214240 66 154 0.0 0.0 0.00 0.00 0.00 82 1003.6
20260507213737 66 154 0.0 0.0 0.00 0.00 0.00 83 1003.6
20260507212746 66 154 0.0 0.0 0.00 0.00 0.00 83 1003.6
20260507212236 65 154 0.0 0.0 0.00 0.00 0.00 83 1003.6
20260507211749 65 154 0.0 0.0 0.00 0.00 0.00 83 1003.6
20260507211239 65 154 0.0 0.0 0.00 0.00 0.00 83 1003.4
20260507210739 64 154 0.0 0.0 0.00 0.00 0.00 83 1003.4
20260507210238 64 154 0.0 0.0 0.00 0.00 0.00 83 1003.4
20260507210141 64 154 0.0 0.0 0.00 0.00 0.00 83 1003.4
20260507205743 64 154 0.0 0.0 0.00 0.00 0.00 83 1003.3
20260507205253 64 154 0.0 0.0 0.00 0.00 0.00 83 1003.3
20260507204747 64 154 0.0 0.0 0.00 0.00 0.00 84 1003.3
20260507203737 63 154 0.0 0.0 0.00 0.00 0.00 84 1003.4
20260507203251 63 154 0.0 0.0 0.00 0.00 0.00 84 1003.4
20260507203135 63 154 0.0 0.0 0.00 0.00 0.00 84 1003.4
20260507202249 63 154 0.0 0.0 0.00 0.00 0.00 84 1003.3
20260507201744 63 154 0.0 0.0 0.00 0.00 0.00 84 1003.3
20260507200754 63 154 0.0 0.0 0.00 0.00 0.00 83 1003.4
20260507200235 63 154 0.0 0.0 0.00 0.00 0.00 84 1003.4
20260507200142 63 154 0.0 0.0 0.00 0.00 0.00 84 1003.4
20260507195744 63 154 0.0 0.0 0.00 0.00 0.00 84 1003.3
20260507195239 63 154 0.0 0.0 0.00 0.00 0.00 84 1003.3
20260507194245 63 154 0.0 0.0 0.00 0.00 0.00 83 1002.9
20260507193735 63 154 0.0 0.0 0.00 0.00 0.00 83 1002.9
20260507193237 63 154 0.0 0.0 0.00 0.00 0.00 83 1002.9
20260507193141 63 154 0.0 0.0 0.00 0.00 0.00 83 1002.9
20260507192743 63 154 0.0 0.0 0.00 0.00 0.00 83 1002.9
20260507192254 63 154 0.0 0.0 0.00 0.00 0.00 83 1002.9
20260507191749 63 154 0.0 0.0 0.00 0.00 0.00 83 1002.9
20260507191240 63 154 0.0 0.0 0.00 0.00 0.00 83 1003.0
20260507190254 63 154 0.0 0.0 0.00 0.00 0.00 83 1003.0
20260507185743 63 154 0.0 0.0 0.00 0.00 0.00 83 1003.0
20260507185253 63 154 0.0 0.0 0.00 0.00 0.00 83 1003.0
20260507184749 63 154 0.0 0.0 0.00 0.00 0.00 83 1003.0
20260507184240 63 154 0.0 0.0 0.00 0.00 0.00 83 1003.3
20260507183752 63 154 0.0 0.0 0.00 0.00 0.00 83 1003.3
20260507183253 63 154 0.0 0.0 0.00 0.00 0.00 83 1003.3
20260507183137 63 154 0.0 0.0 0.00 0.00 0.00 83 1003.3
20260507182738 63 154 0.0 0.0 0.00 0.00 0.00 83 1003.3
20260507182249 64 154 0.0 0.0 0.00 0.00 0.00 83 1003.3
20260507181743 64 154 0.0 0.0 0.00 0.00 0.00 83 1003.3
20260507181252 64 154 0.0 0.0 0.00 0.00 0.00 83 1003.2
20260507180251 64 154 0.0 0.0 0.00 0.00 0.00 83 1003.2
20260507175739 64 154 0.0 0.0 0.00 0.00 0.00 83 1003.1
20260507175249 64 154 0.0 0.0 0.00 0.00 0.00 83 1003.1
20260507174743 64 144 0.0 0.0 0.00 0.00 0.00 83 1003.1
20260507174236 64 144 0.0 0.0 0.00 0.00 0.00 83 1003.3
20260507173250 64 144 0.0 0.0 0.00 0.00 0.00 83 1003.3
20260507172735 64 144 0.0 0.0 0.00 0.00 0.00 83 1003.3
20260507172245 64 130 0.0 0.0 0.00 0.00 0.00 83 1003.3
20260507171739 64 131 0.0 0.0 0.00 0.00 0.00 83 1003.3
20260507171252 64 131 0.0 0.0 0.00 0.00 0.00 83 1003.3
20260507170747 64 131 0.0 0.0 0.00 0.00 0.00 83 1003.3
20260507170137 64 131 0.0 0.0 0.00 0.00 0.00 83 1003.3
20260507165739 64 130 0.0 0.0 0.00 0.00 0.00 83 1003.4
20260507165248 64 130 0.0 0.0 0.00 0.00 0.00 83 1003.4
20260507164742 64 130 0.0 0.0 0.00 0.00 0.00 82 1003.4
20260507164252 64 130 0.0 0.0 0.00 0.00 0.00 82 1003.6
20260507163742 64 130 0.0 0.0 0.00 0.00 0.00 82 1003.6
20260507163238 64 130 0.0 0.0 0.00 0.00 0.00 82 1003.6
20260507163146 65 130 0.0 0.0 0.00 0.00 0.00 82 1003.6
20260507162744 65 130 0.0 0.0 0.00 0.00 0.00 82 1003.9
20260507162234 65 130 0.0 0.0 0.00 0.00 0.00 82 1003.9
20260507161748 65 130 0.0 0.0 0.00 0.00 0.00 82 1003.9
20260507161239 65 130 0.0 0.0 0.00 0.00 0.00 82 1004.0
20260507160734 65 131 0.0 0.0 0.00 0.00 0.00 82 1004.0
20260507160145 65 130 0.0 0.0 0.00 0.00 0.00 82 1004.0
20260507155746 65 128 0.0 0.0 0.00 0.00 0.00 82 1004.1
20260507155237 65 130 0.0 0.0 0.00 0.00 0.00 82 1004.1
20260507154751 65 128 0.0 0.0 0.00 0.00 0.00 81 1004.1
20260507153736 65 128 0.0 0.0 0.00 0.00 0.00 81 1004.1
20260507153140 65 128 0.0 0.0 0.00 0.00 0.00 81 1004.1
20260507152742 66 128 0.0 0.0 0.00 0.00 0.00 81 1004.4
20260507152252 66 128 0.0 0.0 0.00 0.00 0.00 81 1004.4
20260507151748 66 128 0.0 0.0 0.00 0.00 0.00 81 1004.4
20260507151243 66 128 0.0 0.0 0.00 0.00 0.00 81 1004.7
20260507150745 66 128 0.0 0.0 0.00 0.00 0.00 81 1004.7
20260507150242 66 128 0.0 0.0 0.00 0.00 0.00 81 1004.7
20260507145748 66 128 0.0 0.0 0.00 0.00 0.00 81 1004.9
20260507145238 66 128 0.0 0.0 0.00 0.00 0.00 81 1004.9
20260507144752 66 128 0.0 0.0 0.00 0.00 0.00 81 1004.9
20260507144242 66 128 0.0 0.0 0.00 0.00 0.00 80 1004.8
20260507143753 66 235 0.0 0.0 0.00 0.00 0.00 80 1004.8
20260507143252 67 156 0.0 0.0 0.00 0.00 0.00 80 1004.8
20260507143136 67 155 0.0 0.0 0.00 0.00 0.00 80 1004.8
20260507142738 67 154 0.0 0.0 0.00 0.00 0.00 80 1004.8
20260507142247 67 155 0.0 0.0 0.00 0.00 0.00 80 1004.8
20260507141741 67 155 0.0 0.0 0.00 0.00 0.00 80 1004.8
20260507141253 67 155 0.0 0.0 0.00 0.00 0.00 80 1004.9
20260507140746 67 154 0.0 0.0 0.00 0.00 0.00 80 1004.9
20260507140237 67 155 0.0 0.0 0.00 0.00 0.00 80 1004.9
20260507140142 67 155 0.0 0.0 0.00 0.00 0.00 80 1004.9
20260507135239 67 154 0.0 0.0 0.00 0.00 0.00 80 1005.0
20260507134751 67 155 0.0 0.0 0.00 0.00 0.00 79 1005.0
20260507134242 67 155 0.0 0.0 0.00 0.00 0.00 79 1004.9
20260507133734 67 155 0.0 0.0 0.00 0.00 0.00 79 1004.9
20260507132747 68 155 0.0 0.0 0.00 0.00 0.00 79 1004.9
20260507132237 68 155 0.0 0.0 0.00 0.00 0.00 78 1004.9
20260507131242 68 155 0.0 0.0 0.00 0.00 0.00 78 1004.9
20260507130752 68 155 0.0 0.0 0.00 0.00 0.00 78 1004.9
20260507130250 68 155 0.0 0.0 0.00 0.00 0.00 78 1004.9
20260507130134 68 155 0.0 0.0 0.00 0.00 0.00 78 1004.9
20260507125247 68 155 0.0 0.0 0.00 0.00 0.00 78 1005.1
20260507124742 68 155 0.0 0.0 0.00 0.00 0.00 78 1005.1
20260507124251 68 155 0.0 0.0 0.00 0.00 0.00 77 1005.0
20260507123740 68 155 0.0 0.0 0.00 0.00 0.00 77 1005.0
20260507123128 68 155 0.0 0.0 0.00 0.00 0.00 77 1005.0
20260507122745 68 155 0.0 0.0 0.00 0.00 0.00 77 1005.2
20260507121751 68 155 0.0 0.0 0.00 0.00 0.00 77 1005.2
20260507121240 68 155 0.0 0.0 0.00 0.00 0.00 77 1005.1
20260507120738 68 155 0.0 0.0 0.00 0.00 0.00 77 1005.1
20260507120255 68 155 0.0 0.0 0.00 0.00 0.00 77 1005.1
20260507120139 69 155 0.0 0.0 0.00 0.00 0.00 77 1005.1
20260507115741 69 155 0.0 0.0 0.00 0.00 0.00 77 1005.0
20260507115246 69 155 0.0 0.0 0.00 0.00 0.00 77 1005.0
20260507114739 69 155 0.0 0.0 0.00 0.00 0.00 77 1005.0
20260507114249 69 155 0.0 0.0 0.00 0.00 0.00 76 1005.0
20260507113137 69 155 0.0 0.0 0.00 0.00 0.00 76 1005.0
20260507111753 69 155 0.0 0.0 0.00 0.00 0.00 75 1004.9
20260507111244 69 154 0.0 0.0 0.00 0.00 0.00 75 1004.9
20260507110738 69 182 0.0 0.0 0.00 0.00 0.00 74 1004.9
20260507110142 70 179 0.0 0.0 0.00 0.00 0.00 74 1004.9
20260507105744 70 178 0.0 0.0 0.00 0.00 0.00 74 1004.7
20260507104755 70 178 0.0 0.0 0.00 0.00 0.00 74 1004.7
20260507104245 70 178 0.0 0.0 0.00 0.00 0.00 73 1004.8
20260507103241 70 178 0.0 0.0 0.00 0.00 0.00 73 1004.8
20260507103145 70 178 0.0 0.0 0.00 0.00 0.00 73 1004.8
20260507102744 70 180 0.0 0.0 0.00 0.00 0.00 72 1004.6
20260507102249 70 170 0.0 0.0 0.00 0.00 0.00 72 1004.6
20260507101741 71 161 0.0 0.0 0.00 0.00 0.00 72 1004.6
20260507101253 71 175 0.0 0.0 0.00 0.00 0.00 71 1004.5
20260507100742 71 178 0.0 0.0 0.00 0.00 0.00 71 1004.5
20260507100256 71 168 0.0 0.0 0.00 0.00 0.00 71 1004.5
20260507100140 71 162 0.0 0.0 0.00 0.00 0.00 71 1004.5
20260507095741 71 162 0.0 0.0 0.00 0.00 0.00 71 1004.3
20260507095252 71 154 0.0 0.0 0.00 0.00 0.00 70 1004.3
20260507094744 72 151 0.0 0.0 0.00 0.00 0.00 70 1004.3
20260507094253 72 186 0.0 0.0 0.00 0.00 0.00 69 1004.2
20260507093742 72 169 0.0 0.0 0.00 0.00 0.00 68 1004.2
20260507093240 72 148 0.0 0.0 0.00 0.00 0.00 68 1004.2
20260507092750 72 142 0.0 0.0 0.00 0.00 0.00 68 1004.1
20260507092237 73 161 0.0 0.0 0.00 0.00 0.00 67 1004.1
20260507091752 73 179 0.0 0.0 0.00 0.00 0.00 67 1004.1
20260507091244 73 132 0.0 0.0 0.00 0.00 0.00 66 1004.2
20260507090740 73 127 1.0 0.0 0.00 0.00 0.00 66 1004.2
20260507090237 73 161 2.0 0.0 0.00 0.00 0.00 65 1004.2
20260507090141 73 156 2.0 0.0 0.00 0.00 0.00 65 1004.2
20260507085746 73 130 2.0 0.0 0.00 0.00 0.00 65 1004.1
20260507085236 74 121 2.0 0.0 0.00 0.00 0.00 65 1004.1
20260507084748 74 168 2.0 0.0 0.00 0.00 0.00 65 1004.1
20260507084240 74 193 4.0 0.0 0.00 0.00 0.00 65 1004.2
20260507083752 74 128 4.0 0.0 0.00 0.00 0.00 64 1004.2
20260507083254 74 170 4.0 0.0 0.00 0.00 0.00 62 1004.2
20260507083138 74 169 4.0 0.0 0.00 0.00 0.00 62 1004.2
20260507082738 74 128 5.0 0.0 0.00 0.00 0.00 62 1004.4
20260507082247 74 125 5.0 0.0 0.00 0.00 0.00 63 1004.4
20260507081740 74 142 6.0 0.0 0.00 0.00 0.00 62 1004.4
20260507081247 74 168 6.0 0.0 0.00 0.00 0.00 63 1004.4
20260507080737 75 182 5.0 0.0 0.00 0.00 0.00 62 1004.4
20260507080256 75 161 5.0 0.0 0.00 0.00 0.00 62 1004.4
20260507080141 75 166 5.0 0.0 0.00 0.00 0.00 61 1004.4
20260507075255 75 141 6.0 0.0 0.00 0.00 0.00 61 1004.4
20260507074243 76 148 5.0 0.0 0.00 0.00 0.00 61 1004.5
20260507073128 75 96 5.0 0.0 0.00 0.00 0.00 62 1004.5
20260507072753 75 122 4.0 0.0 0.00 0.00 0.00 62 1004.7
20260507072240 75 180 4.0 0.0 0.00 0.00 0.00 62 1004.7
20260507071754 75 245 4.0 0.0 0.00 0.00 0.00 62 1004.7
20260507071243 75 200 5.0 0.0 0.00 0.00 0.00 63 1004.9
20260507070736 75 159 6.0 0.0 0.00 0.00 0.00 62 1004.9
20260507070247 76 118 7.0 0.0 0.00 0.00 0.00 60 1004.9
20260507070131 76 117 7.0 0.0 0.00 0.00 0.00 61 1004.9
20260507065246 75 186 6.0 0.0 0.00 0.00 0.00 62 1004.9
20260507064738 75 89 7.0 0.0 0.00 0.00 0.00 62 1004.9
20260507064249 75 156 6.0 0.0 0.00 0.00 0.00 63 1004.8
20260507063739 75 132 7.0 0.0 0.00 0.00 0.00 62 1004.8
20260507063140 75 179 7.0 0.0 0.00 0.00 0.00 62 1004.8
20260507062740 76 158 6.0 0.0 0.00 0.00 0.00 60 1005.0
20260507062250 76 111 6.0 0.0 0.00 0.00 0.00 60 1005.0
20260507061739 76 125 5.0 0.0 0.00 0.00 0.00 60 1005.0
20260507061248 75 125 3.0 0.0 0.00 0.00 0.00 61 1005.4
20260507060745 75 139 2.0 0.0 0.00 0.00 0.00 61 1005.4
20260507060243 75 163 2.0 0.0 0.00 0.00 0.00 61 1005.4
20260507060128 75 117 2.0 0.0 0.00 0.00 0.00 61 1005.4
20260507055748 75 148 3.0 0.0 0.00 0.00 0.00 61 1005.5
20260507054245 76 132 6.0 0.0 0.00 0.00 0.00 57 1005.8
20260507053750 76 173 6.0 0.0 0.00 0.00 0.00 57 1005.8
20260507053246 77 146 6.0 0.0 0.00 0.00 0.00 54 1005.8
20260507053129 78 156 5.0 0.0 0.00 0.00 0.00 54 1005.8
20260507052245 77 114 4.0 0.0 0.00 0.00 0.00 55 1006.1
20260507051250 76 91 2.0 0.0 0.00 0.00 0.00 57 1006.2
20260507050736 75 158 4.0 0.0 0.00 0.00 0.00 57 1006.2
20260507050251 76 154 4.0 0.0 0.00 0.00 0.00 57 1006.2
20260507050135 76 146 4.0 0.0 0.00 0.00 0.00 57 1006.2
20260507045750 76 146 4.0 0.0 0.00 0.00 0.00 56 1006.5
20260507045241 76 178 5.0 0.0 0.00 0.00 0.00 57 1006.5
20260507044247 75 137 4.0 0.0 0.00 0.00 0.00 60 1006.8
20260507043146 75 108 4.0 0.0 0.00 0.00 0.00 60 1006.8
20260507042749 76 176 5.0 0.0 0.00 0.00 0.00 58 1007.0
20260507042238 76 168 5.0 0.0 0.00 0.00 0.00 57 1007.0
20260507041745 77 250 4.0 0.0 0.00 0.00 0.00 55 1007.0
20260507041253 77 216 4.0 0.0 0.00 0.00 0.00 55 1007.0
20260507040741 77 197 5.0 0.0 0.00 0.00 0.00 54 1007.0
20260507040248 78 178 4.0 0.0 0.00 0.00 0.00 53 1007.0
20260507040132 78 163 4.0 0.0 0.00 0.00 0.00 51 1007.0
20260507035739 79 155 4.0 0.0 0.00 0.00 0.00 50 1007.1
20260507035249 78 94 4.0 0.0 0.00 0.00 0.00 52 1007.1
20260507034239 79 106 3.0 0.0 0.00 0.00 0.00 49 1007.4
20260507033742 79 137 3.0 0.0 0.00 0.00 0.00 48 1007.4
20260507033253 79 125 3.0 0.0 0.00 0.00 0.00 49 1007.4
20260507033137 79 178 3.0 0.0 0.00 0.00 0.00 48 1007.4
20260507032754 79 134 3.0 0.0 0.00 0.00 0.00 49 1007.3
20260507032239 79 121 4.0 0.0 0.00 0.00 0.00 49 1007.3
20260507031745 79 87 4.0 0.0 0.00 0.00 0.00 50 1007.3
20260507031241 79 146 4.0 0.0 0.00 0.00 0.00 49 1007.5
20260507030753 80 142 3.0 0.0 0.00 0.00 0.00 47 1007.5
20260507030239 80 151 4.0 0.0 0.00 0.00 0.00 45 1007.5
20260507030145 80 154 4.0 0.0 0.00 0.00 0.00 45 1007.5
20260507025737 80 108 3.0 0.0 0.00 0.00 0.00 44 1007.8
20260507024747 80 158 3.0 0.0 0.00 0.00 0.00 44 1007.8
20260507023754 79 156 1.0 0.0 0.00 0.00 0.00 45 1008.0
20260507023244 79 203 1.0 0.0 0.00 0.00 0.00 44 1008.0
20260507023131 79 187 2.0 0.0 0.00 0.00 0.00 44 1008.0
20260507022744 79 96 2.0 0.0 0.00 0.00 0.00 44 1008.1
20260507022240 79 151 1.0 0.0 0.00 0.00 0.00 44 1008.1
20260507021733 79 127 1.0 0.0 0.00 0.00 0.00 42 1008.1
20260507021236 79 186 1.0 0.0 0.00 0.00 0.00 43 1008.5
20260507020748 79 89 1.0 0.0 0.00 0.00 0.00 42 1008.5
20260507020253 79 106 2.0 0.0 0.00 0.00 0.00 43 1008.5
20260507020136 79 106 2.0 0.0 0.00 0.00 0.00 43 1008.5
20260507015748 79 117 2.0 0.0 0.00 0.00 0.00 43 1008.6
20260507013737 78 120 1.0 0.0 0.00 0.00 0.00 45 1008.8
20260507013249 77 56 0.0 0.0 0.00 0.00 0.00 45 1008.8
20260507013135 77 347 0.0 0.0 0.00 0.00 0.00 45 1008.8
20260507012733 77 94 1.0 0.0 0.00 0.00 0.00 45 1009.1
20260507012253 77 97 1.0 0.0 0.00 0.00 0.00 46 1009.1
20260507011748 76 295 0.0 0.0 0.00 0.00 0.00 49 1009.0
20260507011245 76 309 0.0 0.0 0.00 0.00 0.00 47 1009.1
20260507010748 75 268 0.0 0.0 0.00 0.00 0.00 49 1009.1
20260507010243 75 17 0.0 0.0 0.00 0.00 0.00 48 1009.1
20260507010145 75 17 0.0 0.0 0.00 0.00 0.00 48 1009.1
20260507005742 75 45 0.0 0.0 0.00 0.00 0.00 48 1009.2
20260507005251 75 22 0.0 0.0 0.00 0.00 0.00 49 1009.2
20260507004739 75 17 0.0 0.0 0.00 0.00 0.00 49 1009.2
20260507004248 74 50 0.0 0.0 0.00 0.00 0.00 49 1009.5
20260507003738 75 87 0.0 0.0 0.00 0.00 0.00 48 1009.5
20260507002244 74 43 0.0 0.0 0.00 0.00 0.00 52 1009.6
20260507001743 74 45 1.0 0.0 0.00 0.00 0.00 51 1009.6
20260507001242 73 45 1.0 0.0 0.00 0.00 0.00 51 1009.7
20260507000738 73 35 0.0 0.0 0.00 0.00 0.00 52 1009.7
20260507000236 72 35 0.0 0.0 0.00 0.00 0.00 53 1009.7
20260507000140 72 35 0.0 0.0 0.00 0.00 0.00 54 1009.7
20260506234753 72 26 0.0 0.0 0.00 0.00 0.00 55 1010.0
20260506234242 71 12 0.0 0.0 0.00 0.00 0.00 57 1010.1
20260506233751 71 12 1.0 0.0 0.00 0.00 0.00 56 1010.1
20260506233247 71 12 1.0 0.0 0.00 0.00 0.00 56 1010.1
20260506233131 71 12 1.0 0.0 0.00 0.00 0.00 56 1010.1
20260506232753 71 7 0.0 0.0 0.00 0.00 0.00 56 1010.2
20260506232243 70 330 0.0 0.0 0.00 0.00 0.00 58 1010.2
20260506231736 70 326 0.0 0.0 0.00 0.00 0.00 59 1010.2
20260506231248 69 323 0.0 0.0 0.00 0.00 0.00 60 1010.4
20260506230742 69 323 0.0 0.0 0.00 0.00 0.00 60 1010.4
20260506230242 69 322 0.0 0.0 0.00 0.00 0.00 61 1010.4
20260506230129 69 323 0.0 0.0 0.00 0.00 0.00 61 1010.4
20260506225747 68 323 0.0 0.0 0.00 0.00 0.00 62 1010.5
20260506225239 68 322 0.0 0.0 0.00 0.00 0.00 62 1010.5